Change the Weather History Date:

Wednesday, December 24, 2014

  Actual Average Record
Temperature  
Mean Temperature 54 °F 51 °F  
Max Temperature 60 °F 60 °F 73 °F (2013)
Min Temperature 47 °F 42 °F 26 °F (1998)
Degree Days  
Heating Degree Days 11    
Month to date heating degree days 171  
Since 1 July heating degree days 607  
Cooling Degree Days 0    
Month to date cooling degree days 0  
Year to date cooling degree days 142  
Growing Degree Days 4 (Base 50)    
Moisture  
Dew Point 48 °F    
Average Humidity 76    
Maximum Humidity 93    
Minimum Humidity 59    
Precipitation  
Precipitation 0.04 in - 0.05 in (2003)
Month to date precipitation 8.90  
Year to date precipitation 19.54  
Since 1 July precipitation 12.15  
Sea Level Pressure  
Sea Level Pressure 30.08 in    
Wind  
Wind Speed 8 mph (West)    
Max Wind Speed 25 mph    
Max Gust Speed 40 mph    
Visibility 9 miles    
Events      
T = Trace of Precipitation, MM = Missing Value Source: NWS Daily Summary

Daily Weather History Graph

Daily Weather History Graph

Search for Another Location

Airport or City:

Trip Planner

Search our weather history database for the weather conditions in past years. The results will help you decide how hot, cold, wet, or windy it might be!

Date:

Astronomy

Dec. 24, 2014 Rise Set
Actual Time 7:17 AM PST 4:57 PM PST
Civil Twilight 6:48 AM PST 5:25 PM PST
Nautical Twilight 6:15 AM PST 5:58 PM PST
Astronomical Twilight 5:44 AM PST 6:29 PM PST
Moon 9:16 AM PST (12/24) 8:22 PM PST (12/24)
Length of Visible Light 10h 37m
Length of Day
9h 39m
Waxing Crescent, 10% of the Moon is Illuminated
Dec 24
Waxing Crescent
Dec 28
First Quarter
Jan 4
Full
Jan 13
Last Quarter
Jan 20
New

Hourly Weather History & Observations

Time (PST) Temp. Dew Point Humidity Pressure Visibility Wind Dir Wind Speed Gust Speed Precip Events Conditions
12:26 AM 50.0 °F 48.2 °F 94% 30.11 in 10.0 mi East 3.5 mph - 0.01 in   Scattered Clouds
12:31 AM 51.8 °F 48.2 °F 88% 30.11 in 2.5 mi East 3.5 mph - 0.01 in   Mostly Cloudy
12:36 AM 51.8 °F 48.2 °F 88% 30.10 in 0.8 mi East 4.6 mph - 0.01 in   Mist
12:44 AM 50.0 °F 48.2 °F 94% 30.10 in 2.0 mi East 5.8 mph - 0.01 in   Overcast
12:51 AM 50.0 °F 48.2 °F 94% 30.09 in 10.0 mi East 4.6 mph - 0.01 in   Overcast
12:54 AM 50.0 °F 48.0 °F 93% 30.13 in 10.0 mi East 5.8 mph - 0.01 in   Mostly Cloudy
1:09 AM 50.0 °F 46.4 °F 87% 30.09 in 10.0 mi ESE 3.5 mph - N/A   Scattered Clouds
1:44 AM 48.2 °F 46.4 °F 93% 30.10 in 10.0 mi East 4.6 mph - N/A   Mostly Cloudy
1:54 AM 48.9 °F 46.0 °F 90% 30.14 in 10.0 mi East 5.8 mph - N/A   Overcast
2:54 AM 50.0 °F 46.9 °F 89% 30.14 in 10.0 mi East 4.6 mph - N/A   Overcast
3:35 AM 48.2 °F 46.4 °F 93% 30.08 in 10.0 mi East 5.8 mph - N/A   Scattered Clouds
3:54 AM 48.0 °F 46.0 °F 93% 30.11 in 10.0 mi East 3.5 mph - N/A   Clear
4:54 AM 48.0 °F 45.0 °F 89% 30.10 in 10.0 mi East 4.6 mph - N/A   Clear
5:54 AM 48.0 °F 45.0 °F 89% 30.08 in 10.0 mi East 4.6 mph - N/A   Clear
6:54 AM 48.0 °F 45.0 °F 89% 30.10 in 10.0 mi Calm Calm - N/A   Clear
7:54 AM 48.9 °F 45.0 °F 86% 30.09 in 10.0 mi Calm Calm - N/A   Clear
8:54 AM 55.0 °F 50.0 °F 83% 30.13 in 10.0 mi SW 4.6 mph - N/A   Mostly Cloudy
9:24 AM 55.4 °F 51.8 °F 88% 30.10 in 10.0 mi Calm Calm - N/A   Overcast
9:54 AM 57.0 °F 53.1 °F 87% 30.16 in 10.0 mi West 5.8 mph - N/A   Overcast
10:14 AM 57.2 °F 53.6 °F 88% 30.13 in 10.0 mi West 6.9 mph - N/A   Overcast
10:40 AM 57.2 °F 53.6 °F 88% 30.13 in 10.0 mi WSW 6.9 mph - N/A   Overcast
10:54 AM 59.0 °F 53.1 °F 81% 30.17 in 10.0 mi WSW 6.9 mph - N/A   Overcast
11:28 AM 57.2 °F 53.6 °F 88% 30.12 in 6.0 mi West 3.5 mph - N/A   Overcast
11:54 AM 59.0 °F 54.0 °F 83% 30.14 in 10.0 mi West 6.9 mph - N/A   Overcast
12:09 PM 59.0 °F 53.6 °F 82% 30.09 in 10.0 mi West 5.8 mph - N/A   Mostly Cloudy
12:24 PM 59.0 °F 53.6 °F 82% 30.06 in 10.0 mi WSW 5.8 mph - N/A   Scattered Clouds
12:54 PM 59.0 °F 53.1 °F 81% 30.08 in 10.0 mi WSW 4.6 mph - N/A   Mostly Cloudy
1:54 PM 59.0 °F 51.1 °F 75% 30.07 in 10.0 mi West 8.1 mph - N/A   Overcast
2:54 PM 59.0 °F 51.1 °F 75% 30.05 in 10.0 mi SW 4.6 mph - N/A   Overcast
3:54 PM 57.9 °F 53.1 °F 84% 30.03 in 2.5 mi WSW 11.5 mph 20.7 mph 0.01 in   Haze
4:00 PM 57.2 °F 53.6 °F 88% 30.00 in 1.8 mi WSW 18.4 mph 24.2 mph 0.01 in   Overcast
4:10 PM 55.4 °F 51.8 °F 88% 30.01 in 1.5 mi WNW 23.0 mph 36.8 mph 0.02 in   Overcast
4:18 PM 53.6 °F 51.8 °F 94% 30.01 in 2.0 mi West 16.1 mph 40.3 mph 0.02 in   Overcast
4:20 PM 53.6 °F 51.8 °F 94% 30.00 in 3.0 mi West 13.8 mph 40.3 mph 0.02 in   Overcast
4:27 PM 55.4 °F 51.8 °F 88% 30.01 in 9.0 mi West 13.8 mph 24.2 mph 0.02 in   Overcast
4:52 PM 55.4 °F 50.0 °F 82% 30.01 in 10.0 mi West 19.6 mph 28.8 mph 0.02 in   Overcast
4:54 PM 55.9 °F 48.9 °F 77% 30.06 in 10.0 mi WNW 18.4 mph 28.8 mph 0.02 in   Overcast
5:01 PM 55.4 °F 48.2 °F 77% 30.02 in 10.0 mi West 18.4 mph 27.6 mph N/A   Overcast
5:45 PM 55.4 °F 46.4 °F 72% 30.04 in 10.0 mi WNW 16.1 mph 24.2 mph N/A   Mostly Cloudy
5:54 PM 55.9 °F 45.0 °F 67% 30.08 in 10.0 mi West 19.6 mph 26.5 mph N/A   Mostly Cloudy
6:44 PM 55.4 °F 44.6 °F 67% 30.03 in 10.0 mi WNW 16.1 mph 26.5 mph N/A   Mostly Cloudy
6:54 PM 55.9 °F 44.1 °F 64% 30.08 in 10.0 mi West 20.7 mph 33.4 mph N/A   Mostly Cloudy
7:10 PM 55.4 °F 42.8 °F 63% 30.04 in 10.0 mi West 15.0 mph 31.1 mph N/A   Mostly Cloudy
7:38 PM 55.4 °F 44.6 °F 67% 30.03 in 10.0 mi West 17.3 mph 28.8 mph N/A   Overcast
7:54 PM 55.9 °F 43.0 °F 62% 30.06 in 10.0 mi West 16.1 mph 29.9 mph N/A   Mostly Cloudy
8:36 PM 55.4 °F 44.6 °F 67% 30.02 in 10.0 mi WNW 13.8 mph 25.3 mph N/A   Scattered Clouds
8:54 PM 55.0 °F 43.0 °F 64% 30.06 in 10.0 mi WNW 11.5 mph - N/A   Clear
9:54 PM 54.0 °F 39.9 °F 59% 30.07 in 10.0 mi WNW 12.7 mph 18.4 mph N/A   Clear
10:54 PM 54.0 °F 39.0 °F 57% 30.08 in 10.0 mi NW 12.7 mph - N/A   Clear
11:54 PM 53.1 °F 39.0 °F 59% 30.09 in 10.0 mi NW 8.1 mph - N/A   Clear